Flag for U.S.A. Weather past 2 weeks in Nashville, Tennessee, U.S.A.

Now
70 °F

Passing clouds.


Feels Like: 68 °F
Forecast: 70 / 81 °F
Wind: 8 mph from Southeast

Location: Nashville International Airport

Current Time: Aug 30, 2015 at 1:38:46 AM

Latest Report: Aug 30, 2015 at 12:53 AM


Visibility: 10 mi

Pressure: 30.08 "Hg

Humidity: 87%

Dew point: 66 °F

Location of NashvilleLocation

Historic Weather in Nashville — Graph

°F

Nashville temperature yesterday

Maximum temperature yesterday: 87 °F (at 1:53 PM)
Minimum temperature yesterday: 71 °F (at 1:53 AM)
Average temperature yesterday: 76 °F

Past Weeks' High & Low Weather Summary

 TemperatureHumidityPressure
High90 °F (Aug 23, 2:53 PM)91% (Aug 17, 4:53 AM)30.19 "Hg (Aug 17, 4:53 AM)
Low58 °F (Aug 25, 4:53 AM)28% (Aug 25, 2:53 PM)29.82 "Hg (Aug 19, 2:53 PM)
Average75 °F68%30.04 "Hg
* Reported Aug 14 11:53 PM — Aug 29 11:53 PM, Nashville, Weather by CustomWeather, © 2015

Note: Actual official high and low records may vary slightly from our data, if they occured in-between our weather recording intervals... More about our weather records

Advertising

Nashville weather history for previous 24 hours

 ConditionsComfort  
Time TempWeatherWind HumidityBarometerVisibility
11:53 PM
Sat, Aug 29
71 °FPassing clouds.No wind84%30.08 "Hg10 mi
10:53 PM71 °FPassing clouds.6 mph84%30.08 "Hg10 mi
9:53 PM71 °FPassing clouds.6 mph84%30.09 "Hg10 mi
8:53 PM72 °FPassing clouds.8 mph81%30.08 "Hg10 mi
7:53 PM74 °FPassing clouds.9 mph74%30.07 "Hg10 mi
6:53 PM76 °FBroken clouds.12 mph69%30.06 "Hg10 mi
5:53 PM78 °FBroken clouds.8 mph64%30.06 "Hg10 mi
4:53 PM80 °FBroken clouds.10 mph67%30.05 "Hg10 mi
3:53 PM81 °FBroken clouds.5 mph67%30.05 "Hg10 mi
2:53 PM78 °FLight rain. Broken clouds.12 mph71%30.06 "Hg10 mi
1:53 PM87 °FBroken clouds.12 mph53%30.07 "Hg10 mi
12:53 PM86 °FBroken clouds.5 mph55%30.09 "Hg10 mi
11:53 AM85 °FPartly sunny.7 mph57%30.12 "Hg10 mi
10:53 AM84 °FPartly sunny.10 mph59%30.13 "Hg10 mi
9:53 AM82 °FBroken clouds.8 mph60%30.13 "Hg10 mi
8:53 AM79 °FScattered clouds.8 mph67%30.12 "Hg10 mi
7:53 AM74 °FSunny.3 mph76%30.12 "Hg8 mi
6:53 AM72 °FScattered clouds.3 mph78%30.11 "Hg10 mi
5:53 AM71 °FPassing clouds.No wind81%30.10 "Hg10 mi
4:53 AM71 °FPassing clouds.No wind81%30.08 "Hg10 mi
3:53 AM71 °FPassing clouds.No wind81%30.08 "Hg10 mi
2:53 AM71 °FClear.3 mph81%30.07 "Hg10 mi
1:53 AM71 °FClear.6 mph81%30.07 "Hg10 mi
Weather by CustomWeather, © 2015

See weather overviewHow to use our weather pages